Wellsville, NY

4:01 PM EDT on June 26, 2017 (GMT -0400)
Wellsville Municipal-Tarantine

Weather History for KELZ - September, 2012

Change the Weather History Date:

Saturday, September 22, 2012

  Actual Average (KDSV) Record (KDSV)
Temperature  
Mean Temperature 54 °F -  
Max Temperature 64 °F 70 °F 90 °F (1965)
Min Temperature 44 °F 48 °F 31 °F (1973)
Degree Days  
Heating Degree Days 11    
Growing Degree Days 4 (Base 50)    
Moisture  
Dew Point 51 °F    
Average Humidity 79    
Maximum Humidity 93    
Minimum Humidity 60    
Precipitation  
Precipitation 0.26 in - - ()
Sea Level Pressure  
Sea Level Pressure 29.81 in    
Wind  
Wind Speed 13 mph (SW)    
Max Wind Speed 22 mph    
Max Gust Speed 37 mph    
Visibility 10 miles    
Events Rain    
Averages and records for this station are not official NWS values.
T = Trace of Precipitation, MM = Missing Value Source: NWS Daily Summary

Daily Weather History Graph

Daily Weather History Graph

Search for Another Location

Airport or City:

Trip Planner

Search our weather history database for the weather conditions in past years. The results will help you decide how hot, cold, wet, or windy it might be!

Date:

Astronomy

Sep. 22, 2012 Rise Set
Actual Time 6:59 AM EDT 7:08 PM EDT
Civil Twilight 6:31 AM EDT 7:36 PM EDT
Nautical Twilight 5:59 AM EDT 8:08 PM EDT
Astronomical Twilight 5:25 AM EDT 8:42 PM EDT
Moon 2:22 PM EDT (9/22) No Moon Set
Length of Visible Light 13h 04m
Length of Day
12h 08m
Waxing Crescent, 48% of the Moon is Illuminated
Sep 22
Waxing Crescent
Sep 22
First Quarter
Sep 29
Full
Oct 8
Last Quarter
Oct 15
New

Hourly Weather History & Observations

Time (EDT) Temp. Windchill Dew Point Humidity Pressure Visibility Wind Dir Wind Speed Gust Speed Precip Events Conditions
12:56 AM 55.0 °F - 51.1 °F 86% 29.85 in 10.0 mi SSE 11.5 mph - N/A   Partly Cloudy
1:22 AM 55.4 °F - 51.8 °F 88% 29.85 in 10.0 mi SSE 9.2 mph - N/A   Mostly Cloudy
1:56 AM 55.9 °F - 52.0 °F 87% 29.80 in 10.0 mi SSE 12.7 mph - N/A   Mostly Cloudy
2:23 AM 57.2 °F - 53.6 °F 88% 29.78 in 10.0 mi SSE 12.7 mph - N/A   Overcast
2:51 AM 62.6 °F - 57.2 °F 82% 29.77 in 10.0 mi South 18.4 mph 31.1 mph N/A   Mostly Cloudy
2:56 AM 62.1 °F - 57.0 °F 84% 29.74 in 10.0 mi South 21.9 mph 34.5 mph N/A   Mostly Cloudy
3:30 AM 62.6 °F - 55.4 °F 77% 29.75 in 10.0 mi South 19.6 mph 36.8 mph 0.01 in   Mostly Cloudy
3:56 AM 63.0 °F - 55.9 °F 78% 29.71 in 10.0 mi South 19.6 mph 33.4 mph 0.01 in   Overcast
4:56 AM 63.0 °F - 55.0 °F 75% 29.70 in 10.0 mi South 18.4 mph 35.7 mph N/A   Clear
5:56 AM 64.0 °F - 54.0 °F 70% 29.70 in 10.0 mi South 19.6 mph 26.5 mph N/A   Mostly Cloudy
6:56 AM 64.0 °F - 54.0 °F 70% 29.71 in 10.0 mi SSW 13.8 mph 24.2 mph N/A   Mostly Cloudy
7:22 AM 60.8 °F - 55.4 °F 82% 29.76 in 2.5 mi WSW 19.6 mph 33.4 mph 0.05 in Rain Heavy Rain
7:34 AM 57.2 °F - 53.6 °F 88% 29.77 in 5.0 mi WSW 17.3 mph 29.9 mph 0.07 in Rain Light Rain
7:56 AM 57.0 °F - 52.0 °F 83% 29.76 in 10.0 mi SW 12.7 mph 25.3 mph 0.08 in Rain Light Rain
8:56 AM 57.0 °F - 53.1 °F 87% 29.77 in 10.0 mi SW 11.5 mph 24.2 mph 0.01 in   Overcast
9:56 AM 57.9 °F - 53.1 °F 84% 29.79 in 10.0 mi WSW 8.1 mph 17.3 mph 0.00 in   Mostly Cloudy
10:56 AM 60.1 °F - 54.0 °F 80% 29.80 in 10.0 mi WSW 9.2 mph 19.6 mph 0.00 in   Overcast
11:16 AM 62.6 °F - 55.4 °F 77% 29.80 in 10.0 mi SW 12.7 mph 19.6 mph 0.00 in Rain Light Rain
11:30 AM 60.8 °F - 53.6 °F 77% 29.81 in 10.0 mi SW 10.4 mph 24.2 mph 0.00 in   Mostly Cloudy
11:56 AM 63.0 °F - 55.0 °F 75% 29.79 in 10.0 mi SW 13.8 mph 19.6 mph 0.00 in   Mostly Cloudy
12:56 PM 64.0 °F - 54.0 °F 70% 29.79 in 10.0 mi WSW 13.8 mph 21.9 mph 0.00 in   Overcast
1:56 PM 61.0 °F - 50.0 °F 67% 29.80 in 10.0 mi West 16.1 mph 24.2 mph 0.00 in   Overcast
3:56 PM 61.0 °F - 48.9 °F 64% 29.81 in 10.0 mi West 10.4 mph 20.7 mph N/A   Mostly Cloudy
4:56 PM 62.1 °F - 48.0 °F 60% 29.81 in 10.0 mi West 10.4 mph 18.4 mph N/A   Scattered Clouds
5:56 PM 59.0 °F - 46.9 °F 64% 29.83 in 10.0 mi WNW 10.4 mph - N/A   Partly Cloudy
6:56 PM 52.0 °F - 44.1 °F 74% 29.87 in 10.0 mi NW 10.4 mph - N/A   Partly Cloudy
7:56 PM 50.0 °F - 43.0 °F 77% 29.89 in 10.0 mi West 4.6 mph - N/A   Clear
8:56 PM 50.0 °F - 44.1 °F 80% 29.91 in 10.0 mi WNW 15.0 mph - 0.00 in Rain Light Rain
9:56 PM 48.0 °F - 44.1 °F 86% 29.96 in 8.0 mi West 10.4 mph 20.7 mph 0.07 in Rain Rain
10:40 PM 44.6 °F 40.2 °F 42.8 °F 93% 29.94 in 9.0 mi North 8.1 mph 21.9 mph 0.09 in Rain Light Rain
10:56 PM 45.0 °F 40.6 °F 41.0 °F 86% 29.97 in 10.0 mi NW 8.1 mph - 0.09 in   Overcast
11:56 PM 44.1 °F 39.5 °F 41.0 °F 89% 30.00 in 10.0 mi West 8.1 mph - N/A   Mostly Cloudy